Location: Staunton
(38.1490°N, 79.0720°W)
Time: 23:32:27
(UTC-05:00)

ISS - Pass Details

Date: 17 January 2021
Orbit: 418 x 421 km, 51.6° (Epoch: 23 January)

Event Time Altitude Azimuth Distance (km) Brightness Sun altitude
Rises 17:59:17 0° 188° (S) 2,350 0.5 -7.4°
Reaches altitude 10° 18:02:08 10° 161° (SSE) 1,493 -0.9 -7.9°
Maximum altitude 18:03:56 14° 128° (SE) 1,285 -1.6 -8.3°
Drops below altitude 10° 18:05:44 10° 96° (E) 1,499 -1.5 -8.6°
Enters shadow 18:05:50 10° 95° (E) 1,521 -1.5 -8.6°
